Regional Weather Roundup
Issued by NWS

Home | Current Version | Previous Version | Graphics & Text | Print | Product List | Glossary On
Versions: 1 2 3 4 5 6 7 8 9 10 11 12 13 14 15 16 17 18 19 20 21 22 23 24 25 26 27 28 29 30 31 32 33 34 35 36 37 38 39 40 41 42 43 44 45 46 47 48 49 50
000
ASUS43 KIND 041509
RWRIN

WEATHER ROUNDUP FOR INDIANA
NATIONAL WEATHER SERVICE INDIANAPOLIS IN
1100 AM EDT FRI SEP 04 2015

NOTE: "FAIR" INDICATES FEW OR NO CLOUDS BELOW 12,000 FEET WITH NO
SIGNIFICANT WEATHER AND/OR OBSTRUCTIONS TO VISIBILITY.

* - STATION DOES NOT REPORT WEATHER SUCH AS PRECIPITATION OR FOG.

+ - STATION NOT QUALITY CONTROLLED BY THE NATIONAL WEATHER SERVICE.
    USE DATA WITH CAUTION...ESPECIALLY DEWPOINT AND RELATIVE
    HUMIDITY OBSERVATIONS.

INZ001>003-010>013-019-020-041600-
NORTHWEST INDIANA

CITY           SKY/WX    TMP DP  RH WIND       PRES   REMARKS
GARY /AIRPORT/ MOSUNNY   77  68  73 CALM      30.04R
KNOX *+        CLOUDY    72  68  88 CALM      30.02S
LA PORTE +     SUNNY     76  74  91 CALM      30.04S
MICHIGAN CITY+ MOSUNNY   73  72  94 CALM      30.04R
MONTICELLO +   MOSUNNY   78  73  83 CALM      30.02S
RENSSELAER +   SUNNY     77  72  83 CALM      30.04R
VALPARAISO     MOSUNNY   77  69  76 CALM      30.04R

$$

LMZ046-743>745-041600-
SOUTHERN LAKE MICHIGAN

STATION/POSITION TIME  TEMP    WIND        PRES    WAVE
                       AIR SEA DIR/SP/G            HT
                 (UTC) (F)     (DEG/KT/KT) (MB)    (FT)
BURNS HARBOR     1400   75      50/  2/  3 1016.9S
MICHIGAN CITY    1400   71      10/  2/  3   N/A
5NW MICH CITY    1500   72 74   20/  2/  4   N/A     1

$$

INZ004-005-014>016-021>024-041600-
NORTH CENTRAL INDIANA

CITY           SKY/WX    TMP DP  RH WIND       PRES   REMARKS
ELKHART        PTSUNNY   72  66  83 CALM      30.05R
GOSHEN         CLOUDY    73  67  81 CALM      30.03R
LOGANSPORT +   PTSUNNY   77  66  69 SW3       30.04R
PERU/GRISSOM   MOSUNNY   80  71  74 SW3       30.03R
ROCHESTER +    MOSUNNY   81  70  69 CALM      30.04R
SOUTH BEND     CLOUDY    74  67  78 CALM      30.04R
WARSAW +       MOSUNNY   77  68  73 CALM      30.04R

$$

INZ006>009-017-018-025>027-041600-
NORTHEAST INDIANA

CITY           SKY/WX    TMP DP  RH WIND       PRES   REMARKS
ANGOLA *+      CLOUDY    73  68  83 VRB5      30.03R
AUBURN +       MOSUNNY   77  70  78 SW3       30.03S
FORT WAYNE     MOSUNNY   82  72  71 W5        30.03R
HUNTINGTON +   MOSUNNY   79  68  67 W3        30.03R

$$

INZ028-029-035-036-043>045-051>053-041600-
WEST CENTRAL INDIANA

CITY           SKY/WX    TMP DP  RH WIND       PRES   REMARKS
CRAWFORDSVL +  PTSUNNY   82  65  55 W3        30.05S
GREENCASTLE +  SUNNY     82  64  54 W3        30.06S
LAFAYETTE      SUNNY     82  69  64 VRB3      30.02S
TERRE HAUTE    SUNNY     85  70  60 W6        30.04S

$$

INZ030>032-037>040-046>048-054>057-064-065-041600-
CENTRAL INDIANA

CITY           SKY/WX    TMP DP  RH WIND       PRES   REMARKS
ANDERSON       SUNNY     82  64  54 CALM      30.06R
COLUMBUS       MOSUNNY   82  68  61 CALM      30.05
FRANKFORT +    MOSUNNY   83  72  69 SW6       30.06R
GREENWOOD *+   PTSUNNY   82  66  57 W5        30.06R
INDIANAPOLIS   MOSUNNY   84  68  58 VRB6      30.04S
-EAGLE CREEK   SUNNY     82  69  64 W5        30.04S
KOKOMO *+      MOSUNNY   84  70  61 SW6       30.03S
MARION +       SUNNY     80  62  53 CALM      30.04S
MT COMFORT *+  SUNNY     84  63  48 W6        30.05S
SHELBYVILLE    PTSUNNY   84  69  60 W7        30.05R
ZIONSVILLE +   SUNNY     83  69  62 SW3       30.06S

$$

INZ033-034-041-042-049-050-058-059-041600-
EAST CENTRAL INDIANA

CITY           SKY/WX    TMP DP  RH WIND       PRES   REMARKS
MUNCIE         SUNNY     81  70  69 W3        30.05R

$$

INZ060-061-067>069-081>083-085>088-041600-
SOUTHWEST INDIANA

CITY           SKY/WX    TMP DP  RH WIND       PRES   REMARKS
EVANSVILLE     SUNNY     85  68  56 E3        30.05R
HUNTINGBURG *+ SUNNY     84  72  65 CALM      30.05S
WASHINGTON +   SUNNY     85  63  48 CALM      30.04S

$$

INZ062-063-066-070>080-084-089>092-041600-
SOUTH CENTRAL AND SOUTHEAST INDIANA

CITY           SKY/WX    TMP DP  RH WIND       PRES   REMARKS
BLOOMINGTON    SUNNY     83  70  64 W5        30.06S
MADISON *+     SUNNY     84  68  58 CALM      30.08S
NORTH VERNON + SUNNY     82  70  65 CALM      30.07R
SEYMOUR +      SUNNY     88  68  51 W5        30.05S

$$




USA.gov is the U.S. government's official web portal to all federal, state and local government web resources and services.